Time,TemperatureF,DewpointF,PressureIn,WindDirection,WindDirectionDegrees,WindSpeedMPH,WindSpeedGustMPH,Humidity,HourlyPrecipIn,Conditions,Clouds,dailyrainin,SolarRadiationWatts/m^2,SoftwareType,DateUTC
2013-03-16 00:00:00,36.4,33.2,29.40,SE,139,0.0,0.0,88,0.00,SCT,OVC,0.09,0.0,WeatherDisplay:10.37,2013-03-16 00:00:00,
2013-03-16 00:05:00,36.3,33.1,29.40,SE,140,0.0,0.0,88,0.00,RA,OVC,0.00,0.0,WeatherDisplay:10.37,2013-03-16 00:05:00,
2013-03-16 00:10:00,36.1,33.2,29.40,SE,139,0.0,0.0,89,0.00,RA,OVC,0.00,0.0,WeatherDisplay:10.37,2013-03-16 00:10:00,
2013-03-16 00:15:00,35.5,32.0,29.40,SE,139,0.0,1.0,87,0.00,SCT,OVC,0.00,0.0,WeatherDisplay:10.37,2013-03-16 00:15:00,
2013-03-16 00:20:00,34.9,31.7,29.40,SE,139,0.0,0.0,88,0.00,SCT,OVC,0.00,0.0,WeatherDisplay:10.37,2013-03-16 00:20:00,
2013-03-16 00:25:00,35.1,32.5,29.40,SE,139,0.0,0.0,90,0.00,SCT,OVC,0.00,0.0,WeatherDisplay:10.37,2013-03-16 00:25:00,
2013-03-16 00:30:00,35.3,32.9,29.40,SE,140,0.0,0.0,91,0.00,SCT,OVC,0.00,0.0,WeatherDisplay:10.37,2013-03-16 00:30:00,
2013-03-16 00:35:00,35.4,33.0,29.40,SE,140,0.0,0.0,91,0.00,SCT,OVC,0.00,0.0,WeatherDisplay:10.37,2013-03-16 00:35:00,
2013-03-16 00:40:00,35.3,32.7,29.40,SE,139,0.0,0.0,90,0.00,SCT,OVC,0.00,0.0,WeatherDisplay:10.37,2013-03-16 00:40:00,
2013-03-16 00:45:00,35.1,32.5,29.40,SE,139,0.0,0.0,90,0.00,SCT,OVC,0.00,0.0,WeatherDisplay:10.37,2013-03-16 00:45:00,
2013-03-16 00:50:00,34.6,31.7,29.40,SE,139,0.0,0.0,89,0.00,CLR,OVC,0.00,0.0,WeatherDisplay:10.37,2013-03-16 00:50:00,
2013-03-16 00:55:00,34.1,31.2,29.39,SE,140,0.0,0.0,89,0.00,CLR,OVC,0.00,0.0,WeatherDisplay:10.37,2013-03-16 00:55:00,
2013-03-16 01:00:00,33.8,31.2,29.39,SE,140,0.0,0.0,90,0.00,CLR,OVC,0.00,0.0,WeatherDisplay:10.37,2013-03-16 01:00:00,
2013-03-16 01:05:00,33.3,30.4,29.39,SE,139,0.0,0.0,89,0.00,CLR,OVC,0.00,0.0,WeatherDisplay:10.37,2013-03-16 01:05:00,
2013-03-16 01:10:00,32.7,29.8,29.39,SE,139,0.0,0.0,89,0.00,CLR,OVC,0.00,0.0,WeatherDisplay:10.37,2013-03-16 01:10:00,
2013-03-16 01:15:00,32.4,29.8,29.39,SE,139,0.0,0.0,90,0.00,CLR,OVC,0.00,0.0,WeatherDisplay:10.37,2013-03-16 01:15:00,
2013-03-16 01:20:00,32.5,30.2,29.39,SE,140,0.0,0.0,91,0.00,CLR,OVC,0.00,0.0,WeatherDisplay:10.37,2013-03-16 01:20:00,
2013-03-16 01:25:00,32.8,30.7,29.38,SE,145,0.0,1.0,92,0.00,CLR,OVC,0.00,0.0,WeatherDisplay:10.37,2013-03-16 01:25:00,
2013-03-16 01:30:00,33.0,30.9,29.38,SSW,203,0.0,0.0,92,0.00,CLR,OVC,0.00,0.0,WeatherDisplay:10.37,2013-03-16 01:30:00,
2013-03-16 01:35:00,32.6,30.3,29.38,SW,214,1.0,1.0,91,0.00,CLR,OVC,0.00,0.0,WeatherDisplay:10.37,2013-03-16 01:35:00,
2013-03-16 01:40:00,32.6,30.5,29.38,SW,223,0.0,1.0,92,0.00,CLR,OVC,0.00,0.0,WeatherDisplay:10.37,2013-03-16 01:40:00,
2013-03-16 01:45:00,32.8,31.0,29.38,SSW,208,0.0,0.0,93,0.00,CLR,OVC,0.00,0.0,WeatherDisplay:10.37,2013-03-16 01:45:00,
2013-03-16 01:50:00,32.8,31.0,29.38,SSW,209,0.0,0.0,93,0.00,CLR,OVC,0.00,0.0,WeatherDisplay:10.37,2013-03-16 01:50:00,
2013-03-16 01:55:00,32.7,30.9,29.38,SSW,208,0.0,0.0,93,0.00,CLR,OVC,0.00,0.0,WeatherDisplay:10.37,2013-03-16 01:55:00,
2013-03-16 02:00:00,32.7,30.9,29.38,SSW,208,0.0,0.0,93,0.00,CLR,OVC,0.00,0.0,WeatherDisplay:10.37,2013-03-16 02:00:00,
2013-03-16 02:05:00,32.9,31.1,29.38,SSW,208,0.0,0.0,93,0.00,CLR,OVC,0.00,0.0,WeatherDisplay:10.37,2013-03-16 02:05:00,
2013-03-16 02:10:00,33.0,31.2,29.38,SSW,208,0.0,0.0,93,0.00,CLR,OVC,0.00,0.0,WeatherDisplay:10.37,2013-03-16 02:10:00,
2013-03-16 02:15:00,33.1,31.3,29.38,SSW,208,0.0,0.0,93,0.00,CLR,OVC,0.00,0.0,WeatherDisplay:10.37,2013-03-16 02:15:00,
2013-03-16 02:20:00,33.1,31.3,29.38,SSW,208,0.0,0.0,93,0.00,CLR,OVC,0.00,0.0,WeatherDisplay:10.37,2013-03-16 02:20:00,
2013-03-16 02:25:00,33.0,31.2,29.37,SSW,208,0.0,0.0,93,0.00,CLR,OVC,0.00,0.0,WeatherDisplay:10.37,2013-03-16 02:25:00,
2013-03-16 02:30:00,32.9,31.1,29.37,SSW,208,0.0,0.0,93,0.00,CLR,OVC,0.00,0.0,WeatherDisplay:10.37,2013-03-16 02:30:00,
2013-03-16 02:35:00,32.8,31.0,29.37,SSW,208,0.0,0.0,93,0.00,CLR,OVC,0.00,0.0,WeatherDisplay:10.37,2013-03-16 02:35:00,
2013-03-16 02:40:00,32.8,31.0,29.37,SSW,208,0.0,0.0,93,0.00,CLR,OVC,0.00,0.0,WeatherDisplay:10.37,2013-03-16 02:40:00,
2013-03-16 02:45:00,32.9,31.1,29.37,SSW,208,0.0,0.0,93,0.00,CLR,OVC,0.00,0.0,WeatherDisplay:10.37,2013-03-16 02:45:00,
2013-03-16 02:50:00,32.9,31.1,29.37,SSW,208,0.0,0.0,93,0.00,SCT,OVC,0.00,0.0,WeatherDisplay:10.37,2013-03-16 02:50:00,
2013-03-16 02:55:00,32.9,31.1,29.37,SSW,210,0.0,1.0,93,0.00,SCT,OVC,0.00,0.0,WeatherDisplay:10.37,2013-03-16 02:55:00,
2013-03-16 03:00:00,33.0,31.2,29.37,SW,219,1.2,0.0,93,0.00,SCT,OVC,0.00,0.0,WeatherDisplay:10.37,2013-03-16 03:00:00,
2013-03-16 03:05:00,33.0,31.2,29.37,SW,219,0.0,0.0,93,0.00,CLR,OVC,0.00,0.0,WeatherDisplay:10.37,2013-03-16 03:05:00,
2013-03-16 03:10:00,33.0,31.2,29.37,SW,219,0.0,0.0,93,0.00,CLR,OVC,0.00,0.0,WeatherDisplay:10.37,2013-03-16 03:10:00,
2013-03-16 03:15:00,33.0,31.2,29.37,SW,219,0.0,0.0,93,0.00,CLR,OVC,0.00,0.0,WeatherDisplay:10.37,2013-03-16 03:15:00,
2013-03-16 03:20:00,32.9,31.1,29.37,SW,219,0.0,0.0,93,0.00,CLR,OVC,0.00,0.0,WeatherDisplay:10.37,2013-03-16 03:20:00,
2013-03-16 03:25:00,32.8,31.0,29.37,SW,219,0.0,0.0,93,0.00,CLR,OVC,0.00,0.0,WeatherDisplay:10.37,2013-03-16 03:25:00,
2013-03-16 03:30:00,32.7,30.9,29.37,SW,219,0.0,0.0,93,0.00,CLR,OVC,0.00,0.0,WeatherDisplay:10.37,2013-03-16 03:30:00,
2013-03-16 03:35:00,32.8,31.0,29.36,SW,228,0.0,1.0,93,0.00,CLR,OVC,0.00,0.0,WeatherDisplay:10.37,2013-03-16 03:35:00,
2013-03-16 03:40:00,33.0,31.5,29.36,West,262,1.2,0.0,94,0.00,CLR,OVC,0.00,0.0,WeatherDisplay:10.37,2013-03-16 03:40:00,
2013-03-16 03:45:00,33.1,31.6,29.36,WSW,258,0.0,1.0,94,0.00,CLR,OVC,0.00,0.0,WeatherDisplay:10.37,2013-03-16 03:45:00,
2013-03-16 03:50:00,33.3,31.8,29.36,WSW,254,0.0,1.0,94,0.00,CLR,OVC,0.00,0.0,WeatherDisplay:10.37,2013-03-16 03:50:00,
2013-03-16 03:55:00,33.5,32.0,29.36,West,260,0.0,1.0,94,0.00,CLR,OVC,0.00,0.0,WeatherDisplay:10.37,2013-03-16 03:55:00,
2013-03-16 04:00:00,33.2,31.4,29.35,WSW,240,1.2,0.0,93,0.00,CLR,OVC,0.00,0.0,WeatherDisplay:10.37,2013-03-16 04:00:00,
2013-03-16 04:05:00,33.2,31.4,29.35,SW,229,0.0,0.0,93,0.00,CLR,OVC,0.00,0.0,WeatherDisplay:10.37,2013-03-16 04:05:00,
2013-03-16 04:10:00,33.2,31.4,29.35,SW,233,0.0,0.0,93,0.00,CLR,OVC,0.00,0.0,WeatherDisplay:10.37,2013-03-16 04:10:00,
2013-03-16 04:15:00,33.3,31.5,29.35,WSW,251,0.0,0.0,93,0.00,CLR,OVC,0.00,0.0,WeatherDisplay:10.37,2013-03-16 04:15:00,
2013-03-16 04:20:00,33.1,31.3,29.35,West,260,1.2,1.2,93,0.00,CLR,OVC,0.00,0.0,WeatherDisplay:10.37,2013-03-16 04:20:00,
2013-03-16 04:25:00,33.0,31.2,29.35,West,262,0.0,0.0,93,0.00,CLR,OVC,0.00,0.0,WeatherDisplay:10.37,2013-03-16 04:25:00,
2013-03-16 04:30:00,32.7,30.9,29.35,West,262,0.0,0.0,93,0.00,CLR,OVC,0.00,0.0,WeatherDisplay:10.37,2013-03-16 04:30:00,
2013-03-16 04:35:00,32.4,30.6,29.35,West,262,0.0,0.0,93,0.00,CLR,OVC,0.00,0.0,WeatherDisplay:10.37,2013-03-16 04:35:00,
2013-03-16 04:40:00,32.2,30.4,29.35,West,260,0.0,0.0,93,0.00,CLR,OVC,0.00,0.0,WeatherDisplay:10.37,2013-03-16 04:40:00,
2013-03-16 04:45:00,31.9,30.1,29.35,West,260,0.0,0.0,93,0.00,CLR,OVC,0.00,0.0,WeatherDisplay:10.37,2013-03-16 04:45:00,
2013-03-16 04:50:00,31.9,30.1,29.35,West,260,0.0,0.0,93,0.00,FEW,OVC,0.00,0.0,WeatherDisplay:10.37,2013-03-16 04:50:00,
2013-03-16 04:55:00,31.8,30.0,29.35,West,260,0.0,0.0,93,0.00,FEW,OVC,0.00,0.0,WeatherDisplay:10.37,2013-03-16 04:55:00,
2013-03-16 05:00:00,31.7,29.9,29.35,West,260,0.0,0.0,93,0.00,FEW,OVC,0.00,0.0,WeatherDisplay:10.37,2013-03-16 05:00:00,
2013-03-16 05:05:00,31.5,29.7,29.35,West,260,0.0,0.0,93,0.00,FEW,OVC,0.00,0.0,WeatherDisplay:10.37,2013-03-16 05:05:00,
2013-03-16 05:10:00,31.0,29.2,29.35,West,260,0.0,0.0,93,0.00,FEW,OVC,0.00,0.0,WeatherDisplay:10.37,2013-03-16 05:10:00,
2013-03-16 05:15:00,30.8,29.0,29.35,West,260,0.0,0.0,93,0.00,FEW,OVC,0.00,0.0,WeatherDisplay:10.37,2013-03-16 05:15:00,
2013-03-16 05:20:00,30.9,29.1,29.35,West,260,0.0,0.0,93,0.00,FEW,OVC,0.00,0.0,WeatherDisplay:10.37,2013-03-16 05:20:00,
2013-03-16 05:25:00,30.8,29.3,29.34,West,260,0.0,0.0,94,0.00,FEW,OVC,0.00,0.0,WeatherDisplay:10.37,2013-03-16 05:25:00,
2013-03-16 05:30:00,30.5,28.7,29.35,West,260,0.0,0.0,93,0.00,FEW,OVC,0.00,0.0,WeatherDisplay:10.37,2013-03-16 05:30:00,
2013-03-16 05:35:00,30.3,28.5,29.35,West,260,0.0,0.0,93,0.00,FEW,OVC,0.00,0.0,WeatherDisplay:10.37,2013-03-16 05:35:00,
2013-03-16 05:40:00,30.2,28.4,29.35,West,260,0.0,0.0,93,0.00,FEW,OVC,0.00,0.0,WeatherDisplay:10.37,2013-03-16 05:40:00,
2013-03-16 05:45:00,30.3,28.8,29.35,West,261,0.0,0.0,94,0.00,FEW,OVC,0.00,0.0,WeatherDisplay:10.37,2013-03-16 05:45:00,
2013-03-16 05:51:00,30.3,28.8,29.35,West,260,0.0,0.0,94,0.00,CLR,OVC,0.00,0.0,WeatherDisplay:10.37,2013-03-16 05:51:00,
2013-03-16 05:56:00,30.6,29.1,29.35,West,260,0.0,0.0,94,0.00,CLR,OVC,0.00,0.0,WeatherDisplay:10.37,2013-03-16 05:56:00,
2013-03-16 06:01:00,30.9,29.6,29.34,West,260,0.0,0.0,95,0.00,CLR,OVC,0.00,0.0,WeatherDisplay:10.37,2013-03-16 06:01:00,
2013-03-16 06:06:00,31.0,29.7,29.34,West,260,0.0,0.0,95,0.00,CLR,OVC,0.00,0.0,WeatherDisplay:10.37,2013-03-16 06:06:00,
2013-03-16 06:11:00,30.9,29.4,29.34,West,260,0.0,0.0,94,0.00,CLR,OVC,0.00,0.0,WeatherDisplay:10.37,2013-03-16 06:11:00,
2013-03-16 06:16:00,30.6,29.1,29.34,West,260,0.0,0.0,94,0.00,OVC,,0.00,0.0,WeatherDisplay:10.37,2013-03-16 06:16:00,
2013-03-16 06:21:00,30.5,29.0,29.34,West,260,0.0,0.0,94,0.00,OVC,,0.00,0.0,WeatherDisplay:10.37,2013-03-16 06:21:00,
2013-03-16 06:26:00,30.5,29.0,29.34,West,260,0.0,0.0,94,0.00,OVC,,0.00,0.0,WeatherDisplay:10.37,2013-03-16 06:26:00,
2013-03-16 06:31:00,30.3,28.8,29.34,West,260,0.0,0.0,94,0.00,OVC,,0.00,0.0,WeatherDisplay:10.37,2013-03-16 06:31:00,
2013-03-16 06:36:00,30.2,28.7,29.34,West,260,0.0,0.0,94,0.00,OVC,,0.00,0.0,WeatherDisplay:10.37,2013-03-16 06:36:00,
2013-03-16 06:41:00,30.4,28.9,29.34,West,260,0.0,0.0,94,0.00,OVC,,0.00,0.0,WeatherDisplay:10.37,2013-03-16 06:41:00,
2013-03-16 06:47:00,30.7,29.4,29.34,West,260,0.0,0.0,95,0.00,SCT,OVC,0.00,0.0,WeatherDisplay:10.37,2013-03-16 06:47:00,
2013-03-16 06:52:00,31.0,29.7,29.34,West,260,0.0,0.0,95,0.00,SCT,OVC,0.00,0.0,WeatherDisplay:10.37,2013-03-16 06:52:00,
2013-03-16 06:57:00,31.1,29.8,29.34,West,260,0.0,0.0,95,0.00,SCT,OVC,0.00,0.0,WeatherDisplay:10.37,2013-03-16 06:57:00,
2013-03-16 07:02:00,31.1,29.8,29.34,West,260,0.0,0.0,95,0.00,SCT,OVC,0.00,0.0,WeatherDisplay:10.37,2013-03-16 07:02:00,
2013-03-16 07:07:00,31.1,29.8,29.34,West,259,0.0,0.0,95,0.00,SCT,OVC,0.00,0.0,WeatherDisplay:10.37,2013-03-16 07:07:00,
2013-03-16 07:12:00,31.0,29.7,29.34,West,260,0.0,0.0,95,0.00,SCT,OVC,0.00,0.0,WeatherDisplay:10.37,2013-03-16 07:12:00,
2013-03-16 07:17:00,31.1,29.8,29.34,West,260,0.0,0.0,95,0.00,SCT,OVC,0.00,0.0,WeatherDisplay:10.37,2013-03-16 07:17:00,
2013-03-16 07:22:00,31.3,30.0,29.33,West,260,0.0,0.0,95,0.00,SCT,OVC,0.00,0.0,WeatherDisplay:10.37,2013-03-16 07:22:00,
2013-03-16 07:27:00,31.3,30.0,29.33,West,260,0.0,0.0,95,0.00,SCT,OVC,0.00,0.0,WeatherDisplay:10.37,2013-03-16 07:27:00,
2013-03-16 07:32:00,31.3,30.0,29.33,West,260,0.0,0.0,95,0.00,SCT,OVC,0.00,0.0,WeatherDisplay:10.37,2013-03-16 07:32:00,
2013-03-16 07:37:00,31.4,30.1,29.33,West,260,0.0,0.0,95,0.00,SCT,OVC,0.00,0.0,WeatherDisplay:10.37,2013-03-16 07:37:00,
2013-03-16 07:42:00,31.4,30.1,29.33,West,260,0.0,0.0,95,0.00,SCT,OVC,0.00,0.0,WeatherDisplay:10.37,2013-03-16 07:42:00,
2013-03-16 07:47:00,31.6,30.3,29.33,West,260,0.0,0.0,95,0.00,SCT,OVC,0.00,0.0,WeatherDisplay:10.37,2013-03-16 07:47:00,
2013-03-16 07:52:00,31.7,30.4,29.33,WSW,255,0.0,0.0,95,0.00,SCT,OVC,0.00,0.0,WeatherDisplay:10.37,2013-03-16 07:52:00,
2013-03-16 07:57:00,31.9,30.6,29.33,WSW,255,0.0,0.0,95,0.00,SCT,OVC,0.00,0.0,WeatherDisplay:10.37,2013-03-16 07:57:00,
2013-03-16 08:03:00,32.1,30.8,29.33,WSW,255,0.0,0.0,95,0.00,SCT,OVC,0.00,0.0,WeatherDisplay:10.37,2013-03-16 08:03:00,
2013-03-16 08:08:00,32.3,31.0,29.33,WSW,256,0.0,0.0,95,0.00,SCT,OVC,0.00,0.0,WeatherDisplay:10.37,2013-03-16 08:08:00,
2013-03-16 08:13:00,32.3,31.0,29.33,WSW,255,0.0,0.0,95,0.00,SCT,OVC,0.00,0.0,WeatherDisplay:10.37,2013-03-16 08:13:00,
2013-03-16 08:18:00,32.3,31.0,29.33,WSW,256,0.0,0.0,95,0.00,BKN,OVC,0.00,0.0,WeatherDisplay:10.37,2013-03-16 08:18:00,
2013-03-16 08:23:00,32.5,31.2,29.32,WSW,256,0.0,0.0,95,0.00,BKN,OVC,0.00,0.0,WeatherDisplay:10.37,2013-03-16 08:23:00,
2013-03-16 08:28:00,32.7,31.4,29.32,WSW,256,0.0,0.0,95,0.00,BKN,OVC,0.00,0.0,WeatherDisplay:10.37,2013-03-16 08:28:00,
2013-03-16 08:33:00,32.7,31.4,29.32,WSW,256,0.0,0.0,95,0.00,BKN,OVC,0.00,0.0,WeatherDisplay:10.37,2013-03-16 08:33:00,
2013-03-16 08:38:00,32.8,31.5,29.32,WSW,256,0.0,0.0,95,0.00,BKN,OVC,0.00,0.0,WeatherDisplay:10.37,2013-03-16 08:38:00,
2013-03-16 08:43:00,32.7,31.4,29.32,WSW,256,0.0,0.0,95,0.00,BKN,OVC,0.00,0.0,WeatherDisplay:10.37,2013-03-16 08:43:00,
2013-03-16 08:48:00,32.7,31.4,29.32,WSW,256,0.0,0.0,95,0.00,-DZ,OVC,0.00,0.0,WeatherDisplay:10.37,2013-03-16 08:48:00,
2013-03-16 08:53:00,32.8,31.5,29.32,WSW,256,0.0,0.0,95,0.00,-DZ,OVC,0.00,0.0,WeatherDisplay:10.37,2013-03-16 08:53:00,
2013-03-16 08:58:00,33.1,31.8,29.32,South,180,0.0,0.0,95,0.00,-DZ,OVC,0.00,0.0,WeatherDisplay:10.37,2013-03-16 08:58:00,
2013-03-16 09:03:00,33.7,32.4,29.32,SE,135,1.2,1.2,95,0.00,-DZ,OVC,0.00,0.0,WeatherDisplay:10.37,2013-03-16 09:03:00,
2013-03-16 09:08:00,34.0,32.7,29.32,SE,135,0.0,0.0,95,0.00,-DZ,OVC,0.00,0.0,WeatherDisplay:10.37,2013-03-16 09:08:00,
2013-03-16 09:13:00,34.3,33.0,29.31,SE,136,0.0,0.0,95,0.00,-DZ,OVC,0.00,0.0,WeatherDisplay:10.37,2013-03-16 09:13:00,
2013-03-16 09:18:00,34.5,33.2,29.31,SSW,203,1.2,1.2,95,0.00,-RA,OVC,0.00,0.0,WeatherDisplay:10.37,2013-03-16 09:18:00,
2013-03-16 09:23:00,35.0,33.7,29.31,SW,219,1.2,0.0,95,0.00,-RA,OVC,0.00,0.0,WeatherDisplay:10.37,2013-03-16 09:23:00,
2013-03-16 09:28:00,35.5,34.2,29.31,SE,131,1.2,1.2,95,0.00,-RA,OVC,0.00,0.0,WeatherDisplay:10.37,2013-03-16 09:28:00,
2013-03-16 09:33:00,36.1,34.8,29.31,West,267,1.2,0.0,95,0.00,-RA,OVC,0.00,0.0,WeatherDisplay:10.37,2013-03-16 09:33:00,
2013-03-16 09:38:00,36.5,34.7,29.31,NW,309,1.2,1.2,93,0.00,-RA,OVC,0.00,0.0,WeatherDisplay:10.37,2013-03-16 09:38:00,
2013-03-16 09:43:00,37.0,34.9,29.31,SW,221,0.0,0.0,92,0.00,-RA,OVC,0.00,0.0,WeatherDisplay:10.37,2013-03-16 09:43:00,
2013-03-16 09:48:00,37.1,34.7,29.31,SW,222,0.0,0.0,91,0.00,-RA,OVC,0.00,0.0,WeatherDisplay:10.37,2013-03-16 09:48:00,
2013-03-16 09:53:00,37.2,34.5,29.30,SW,226,0.0,0.0,90,0.00,-RA,OVC,0.00,0.0,WeatherDisplay:10.37,2013-03-16 09:53:00,
2013-03-16 09:58:00,37.4,34.5,29.30,SW,235,1.2,0.0,89,0.00,-RA,OVC,0.00,0.0,WeatherDisplay:10.37,2013-03-16 09:58:00,
2013-03-16 10:03:00,37.7,34.8,29.30,WSW,255,2.3,2.3,89,0.00,-RA,OVC,0.00,0.0,WeatherDisplay:10.37,2013-03-16 10:03:00,
2013-03-16 10:08:00,37.9,34.9,29.30,SE,142,2.0,2.0,89,0.00,-RA,OVC,0.00,0.0,WeatherDisplay:10.37,2013-03-16 10:08:00,
2013-03-16 10:13:00,38.1,35.1,29.30,South,188,2.3,2.3,89,0.00,-RA,OVC,0.00,0.0,WeatherDisplay:10.37,2013-03-16 10:13:00,
2013-03-16 10:18:00,38.3,34.8,29.30,SW,231,2.3,2.3,87,0.00,-RA,OVC,0.00,0.0,WeatherDisplay:10.37,2013-03-16 10:18:00,
2013-03-16 10:23:00,38.5,35.0,29.30,WNW,284,2.3,2.3,87,0.00,-RA,OVC,0.00,0.0,WeatherDisplay:10.37,2013-03-16 10:23:00,
2013-03-16 10:28:00,38.6,35.1,29.30,SW,228,2.3,2.3,87,0.00,-RA,OVC,0.00,0.0,WeatherDisplay:10.37,2013-03-16 10:28:00,
2013-03-16 10:33:00,38.7,34.9,29.30,WSW,255,3.5,3.5,86,0.00,-RA,OVC,0.00,0.0,WeatherDisplay:10.37,2013-03-16 10:33:00,
2013-03-16 10:38:00,38.7,34.9,29.30,SSW,210,2.3,2.3,86,0.00,-RA,OVC,0.00,0.0,WeatherDisplay:10.37,2013-03-16 10:38:00,
2013-03-16 10:43:00,38.6,34.5,29.30,WNW,283,4.6,4.6,85,0.00,-RA,OVC,0.00,0.0,WeatherDisplay:10.37,2013-03-16 10:43:00,
2013-03-16 10:48:00,38.5,34.7,29.30,NW,305,2.0,2.0,86,0.00,-RA,OVC,0.00,0.0,WeatherDisplay:10.37,2013-03-16 10:48:00,
2013-03-16 10:53:00,38.5,34.4,29.30,WSW,249,2.3,2.3,85,0.00,-RA,OVC,0.00,0.0,WeatherDisplay:10.37,2013-03-16 10:53:00,
2013-03-16 10:58:00,38.5,34.4,29.30,WSW,253,2.3,2.3,85,0.00,-RA,OVC,0.00,0.0,WeatherDisplay:10.37,2013-03-16 10:58:00,
2013-03-16 11:03:00,38.7,34.6,29.29,ESE,122,1.2,1.2,85,0.00,-RA,OVC,0.00,0.0,WeatherDisplay:10.37,2013-03-16 11:03:00,
2013-03-16 11:08:00,38.8,35.0,29.29,SE,131,1.2,1.2,86,0.00,-RA,OVC,0.00,0.0,WeatherDisplay:10.37,2013-03-16 11:08:00,
2013-03-16 11:13:00,38.8,34.7,29.29,SSW,197,0.0,0.0,85,0.00,-RA,OVC,0.00,0.0,WeatherDisplay:10.37,2013-03-16 11:13:00,
2013-03-16 11:18:00,38.9,34.8,29.28,WNW,296,2.3,2.3,85,0.00,-RA,OVC,0.00,0.0,WeatherDisplay:10.37,2013-03-16 11:18:00,
2013-03-16 11:23:00,39.0,34.9,29.28,SE,138,3.5,3.5,85,0.00,-RA,OVC,0.00,0.0,WeatherDisplay:10.37,2013-03-16 11:23:00,
2013-03-16 11:28:00,39.2,35.4,29.28,SSE,148,1.2,1.2,86,0.00,-RA,OVC,0.00,0.0,WeatherDisplay:10.37,2013-03-16 11:28:00,
2013-03-16 11:33:00,39.3,35.2,29.28,SSW,205,1.2,1.2,85,0.00,-RA,OVC,0.00,0.0,WeatherDisplay:10.37,2013-03-16 11:33:00,
2013-03-16 11:38:00,39.4,35.0,29.28,West,263,3.5,3.5,84,0.00,-RA,OVC,0.00,0.0,WeatherDisplay:10.37,2013-03-16 11:38:00,
2013-03-16 11:43:00,39.5,34.8,29.28,NW,317,3.5,3.5,83,0.01,-RA,OVC,0.01,0.0,WeatherDisplay:10.37,2013-03-16 11:43:00,
2013-03-16 11:48:00,39.4,35.0,29.27,SSW,199,6.9,6.9,84,0.01,-RA,OVC,0.01,0.0,WeatherDisplay:10.37,2013-03-16 11:48:00,
2013-03-16 11:53:00,39.3,34.9,29.27,WSW,240,5.8,5.8,84,0.01,-RA,OVC,0.01,0.0,WeatherDisplay:10.37,2013-03-16 11:53:00,
2013-03-16 11:58:00,39.2,34.8,29.27,WSW,252,5.8,5.8,84,0.01,-RA,OVC,0.01,0.0,WeatherDisplay:10.37,2013-03-16 11:58:00,
2013-03-16 12:03:00,39.1,35.0,29.27,SSW,201,3.5,3.5,85,0.01,-RA,OVC,0.01,0.0,WeatherDisplay:10.37,2013-03-16 12:03:00,
2013-03-16 12:08:00,38.9,34.8,29.27,WSW,248,3.5,3.5,85,0.01,-RA,OVC,0.01,0.0,WeatherDisplay:10.37,2013-03-16 12:08:00,
2013-03-16 12:13:00,38.8,34.7,29.27,WNW,288,5.8,5.8,85,0.02,-RA,OVC,0.02,0.0,WeatherDisplay:10.37,2013-03-16 12:13:00,
2013-03-16 12:18:00,38.7,34.9,29.27,SW,221,4.6,4.6,86,0.02,-RA,OVC,0.02,0.0,WeatherDisplay:10.37,2013-03-16 12:18:00,
2013-03-16 12:23:00,38.6,34.8,29.27,WNW,295,2.3,2.3,86,0.02,-RA,OVC,0.02,0.0,WeatherDisplay:10.37,2013-03-16 12:23:00,
2013-03-16 12:28:00,38.5,35.0,29.27,WNW,300,1.2,1.2,87,0.02,-RA,OVC,0.02,0.0,WeatherDisplay:10.37,2013-03-16 12:28:00,
2013-03-16 12:33:00,38.3,34.8,29.26,SW,218,3.5,3.5,87,0.03,-RA,OVC,0.03,0.0,WeatherDisplay:10.37,2013-03-16 12:33:00,
2013-03-16 12:38:00,38.1,34.6,29.26,West,270,3.5,3.5,87,0.04,-RA,OVC,0.04,0.0,WeatherDisplay:10.37,2013-03-16 12:38:00,
2013-03-16 12:43:00,38.1,34.6,29.26,SE,131,3.5,3.5,87,0.03,-RA,OVC,0.05,0.0,WeatherDisplay:10.37,2013-03-16 12:43:00,
2013-03-16 12:48:00,38.2,34.7,29.26,South,186,3.5,3.5,87,0.04,RA,OVC,0.05,0.0,WeatherDisplay:10.37,2013-03-16 12:48:00,
2013-03-16 12:53:00,38.4,34.9,29.26,South,170,3.5,3.5,87,0.05,RA,OVC,0.06,0.0,WeatherDisplay:10.37,2013-03-16 12:53:00,
2013-03-16 12:58:00,38.5,35.0,29.26,SSE,167,2.3,2.3,87,0.05,RA,OVC,0.06,0.0,WeatherDisplay:10.37,2013-03-16 12:58:00,
2013-03-16 13:03:00,38.5,34.7,29.25,ESE,110,2.3,2.3,86,0.06,RA,OVC,0.06,0.0,WeatherDisplay:10.37,2013-03-16 13:03:00,
2013-03-16 13:08:00,38.5,35.0,29.26,SSE,165,1.2,0.0,87,0.06,RA,OVC,0.06,0.0,WeatherDisplay:10.37,2013-03-16 13:08:00,
2013-03-16 13:13:00,38.6,35.1,29.25,South,188,2.3,2.3,87,0.06,RA,OVC,0.07,0.0,WeatherDisplay:10.37,2013-03-16 13:13:00,
2013-03-16 13:18:00,38.6,35.1,29.25,SSW,200,3.5,3.5,87,0.06,-SN,OVC,0.08,0.0,WeatherDisplay:10.37,2013-03-16 13:18:00,
2013-03-16 13:23:00,38.5,35.0,29.25,SE,132,1.2,1.2,87,0.07,-SN,OVC,0.09,0.0,WeatherDisplay:10.37,2013-03-16 13:23:00,
2013-03-16 13:28:00,38.4,35.2,29.25,NNW,330,3.5,3.5,88,0.07,-SN,OVC,0.09,0.0,WeatherDisplay:10.37,2013-03-16 13:28:00,
2013-03-16 13:34:00,38.2,35.0,29.25,WNW,288,3.5,3.5,88,0.07,-SN,OVC,0.10,0.0,WeatherDisplay:10.37,2013-03-16 13:34:00,
2013-03-16 13:39:00,38.1,35.1,29.24,NW,311,3.0,3.0,89,0.06,-SN,OVC,0.10,0.0,WeatherDisplay:10.37,2013-03-16 13:39:00,
2013-03-16 13:44:00,37.9,34.9,29.24,WNW,284,2.3,2.3,89,0.07,-SN,OVC,0.11,0.0,WeatherDisplay:10.37,2013-03-16 13:44:00,
2013-03-16 13:49:00,37.6,34.9,29.24,NNW,338,3.5,3.5,90,0.07,RA,OVC,0.12,0.0,WeatherDisplay:10.37,2013-03-16 13:49:00,
2013-03-16 13:54:00,37.4,34.7,29.23,WNW,301,3.5,3.5,90,0.07,RA,OVC,0.13,0.0,WeatherDisplay:10.37,2013-03-16 13:54:00,
2013-03-16 13:59:00,37.2,34.8,29.23,NW,307,2.3,2.3,91,0.08,RA,OVC,0.13,0.0,WeatherDisplay:10.37,2013-03-16 13:59:00,
2013-03-16 14:04:00,37.1,34.7,29.23,West,263,3.5,3.5,91,0.08,-RA,OVC,0.14,0.0,WeatherDisplay:10.37,2013-03-16 14:04:00,
2013-03-16 14:09:00,37.1,34.7,29.23,ESE,119,1.2,1.2,91,0.09,-RA,OVC,0.15,0.0,WeatherDisplay:10.37,2013-03-16 14:09:00,
2013-03-16 14:14:00,37.3,34.9,29.22,North,1,1.2,1.2,91,0.09,-RA,OVC,0.16,0.0,WeatherDisplay:10.37,2013-03-16 14:14:00,
2013-03-16 14:19:00,37.4,35.0,29.22,SW,218,4.6,4.6,91,0.08,-RA,OVC,0.16,0.0,WeatherDisplay:10.37,2013-03-16 14:19:00,
2013-03-16 14:24:00,37.7,35.0,29.22,WSW,253,1.2,0.0,90,0.08,-RA,OVC,0.17,0.0,WeatherDisplay:10.37,2013-03-16 14:24:00,
2013-03-16 14:29:00,37.9,35.2,29.22,SSE,156,2.3,2.3,90,0.07,-RA,OVC,0.17,0.0,WeatherDisplay:10.37,2013-03-16 14:29:00,
2013-03-16 14:34:00,38.0,35.3,29.21,SSW,205,2.3,2.3,90,0.06,-RA,OVC,0.17,0.0,WeatherDisplay:10.37,2013-03-16 14:34:00,
2013-03-16 14:39:00,38.0,35.0,29.21,WSW,253,3.5,3.5,89,0.06,-RA,OVC,0.17,0.0,WeatherDisplay:10.37,2013-03-16 14:39:00,
2013-03-16 14:44:00,37.9,34.9,29.21,SE,124,2.3,2.3,89,0.06,-RA,OVC,0.17,0.0,WeatherDisplay:10.37,2013-03-16 14:44:00,
2013-03-16 14:49:00,37.7,34.8,29.21,SSE,151,1.2,1.2,89,0.06,-RA,OVC,0.17,0.0,WeatherDisplay:10.37,2013-03-16 14:49:00,
2013-03-16 14:54:00,37.8,34.8,29.21,West,259,2.3,2.3,89,0.05,-RA,OVC,0.17,0.0,WeatherDisplay:10.37,2013-03-16 14:54:00,
2013-03-16 14:59:00,38.1,35.1,29.20,NW,316,2.3,2.3,89,0.04,-RA,OVC,0.17,0.0,WeatherDisplay:10.37,2013-03-16 14:59:00,
2013-03-16 15:04:00,38.1,35.1,29.20,ESE,109,7.0,7.0,89,0.03,-RA,OVC,0.17,0.0,WeatherDisplay:10.37,2013-03-16 15:04:00,
2013-03-16 15:09:00,37.3,34.6,29.20,ESE,102,9.2,9.2,90,0.02,-RA,OVC,0.17,0.0,WeatherDisplay:10.37,2013-03-16 15:09:00,
2013-03-16 15:14:00,37.2,34.5,29.20,SSE,150,1.2,1.2,90,0.02,-RA,OVC,0.17,0.0,WeatherDisplay:10.37,2013-03-16 15:14:00,
2013-03-16 15:19:00,37.4,35.0,29.21,West,259,3.5,3.5,91,0.02,-RA,OVC,0.17,0.0,WeatherDisplay:10.37,2013-03-16 15:19:00,
2013-03-16 15:24:00,37.6,34.9,29.21,NNE,18,1.2,1.2,90,0.01,-RA,OVC,0.17,0.0,WeatherDisplay:10.37,2013-03-16 15:24:00,
2013-03-16 15:29:00,37.7,35.0,29.21,NNW,327,1.2,1.2,90,0.01,-RA,OVC,0.17,0.0,WeatherDisplay:10.37,2013-03-16 15:29:00,
2013-03-16 15:34:00,37.6,34.9,29.20,WNW,283,1.2,0.0,90,0.01,-RA,OVC,0.17,0.0,WeatherDisplay:10.37,2013-03-16 15:34:00,
2013-03-16 15:39:00,37.6,35.2,29.20,NW,317,2.3,2.3,91,0.01,-RA,OVC,0.17,0.0,WeatherDisplay:10.37,2013-03-16 15:39:00,
2013-03-16 15:44:00,37.5,35.1,29.20,ESE,109,4.6,4.6,91,0.01,-RA,OVC,0.17,0.0,WeatherDisplay:10.37,2013-03-16 15:44:00,
2013-03-16 15:49:00,37.5,35.1,29.20,SE,124,1.2,0.0,91,0.00,-RA,OVC,0.17,0.0,WeatherDisplay:10.37,2013-03-16 15:49:00,
2013-03-16 15:54:00,37.7,35.3,29.20,WNW,302,1.2,1.2,91,0.00,-RA,OVC,0.17,0.0,WeatherDisplay:10.37,2013-03-16 15:54:00,
2013-03-16 15:59:00,37.8,35.1,29.20,SE,144,0.0,0.0,90,0.00,-RA,OVC,0.17,0.0,WeatherDisplay:10.37,2013-03-16 15:59:00,
2013-03-16 16:04:00,37.9,35.2,29.20,NNW,339,1.0,1.0,90,0.00,-RA,OVC,0.17,0.0,WeatherDisplay:10.37,2013-03-16 16:04:00,
2013-03-16 16:09:00,37.9,35.5,29.20,NW,306,1.2,1.2,91,0.00,-RA,OVC,0.17,0.0,WeatherDisplay:10.37,2013-03-16 16:09:00,
2013-03-16 16:14:00,37.9,35.5,29.20,NW,324,2.3,2.3,91,0.00,-RA,OVC,0.17,0.0,WeatherDisplay:10.37,2013-03-16 16:14:00,
2013-03-16 16:19:00,37.9,35.2,29.20,West,271,1.2,0.0,90,0.00,-RA,OVC,0.17,0.0,WeatherDisplay:10.37,2013-03-16 16:19:00,
2013-03-16 16:24:00,38.0,35.3,29.20,NW,325,1.2,0.0,90,0.00,-RA,OVC,0.17,0.0,WeatherDisplay:10.37,2013-03-16 16:24:00,
2013-03-16 16:29:00,38.1,35.4,29.20,NW,314,0.0,0.0,90,0.00,-RA,OVC,0.17,0.0,WeatherDisplay:10.37,2013-03-16 16:29:00,
2013-03-16 16:34:00,38.1,35.1,29.20,NW,314,2.3,2.3,89,0.00,-DZ,OVC,0.17,0.0,WeatherDisplay:10.37,2013-03-16 16:34:00,
2013-03-16 16:39:00,38.1,35.4,29.20,NW,314,0.0,0.0,90,0.00,-DZ,OVC,0.17,0.0,WeatherDisplay:10.37,2013-03-16 16:39:00,
2013-03-16 16:44:00,38.2,35.5,29.20,NNW,329,1.0,1.0,90,0.00,-DZ,OVC,0.17,0.0,WeatherDisplay:10.37,2013-03-16 16:44:00,
2013-03-16 16:49:00,38.2,35.2,29.20,NNW,328,0.0,0.0,89,0.00,-DZ,OVC,0.17,0.0,WeatherDisplay:10.37,2013-03-16 16:49:00,
2013-03-16 16:54:00,38.4,35.4,29.20,SE,124,3.5,3.5,89,0.00,-DZ,OVC,0.17,0.0,WeatherDisplay:10.37,2013-03-16 16:54:00,
2013-03-16 17:00:00,38.3,35.3,29.20,ESE,122,2.3,2.3,89,0.00,-DZ,OVC,0.17,0.0,WeatherDisplay:10.37,2013-03-16 17:00:00,
2013-03-16 17:05:00,38.1,35.4,29.20,ESE,118,1.2,1.2,90,0.00,OVC,,0.17,0.0,WeatherDisplay:10.37,2013-03-16 17:05:00,
2013-03-16 17:10:00,38.0,35.3,29.20,SE,124,1.2,1.2,90,0.00,OVC,,0.17,0.0,WeatherDisplay:10.37,2013-03-16 17:10:00,
2013-03-16 17:15:00,37.9,35.2,29.20,SE,124,0.0,0.0,90,0.00,OVC,,0.17,0.0,WeatherDisplay:10.37,2013-03-16 17:15:00,
2013-03-16 17:20:00,37.9,35.5,29.20,SE,124,0.0,0.0,91,0.00,OVC,,0.17,0.0,WeatherDisplay:10.37,2013-03-16 17:20:00,
2013-03-16 17:25:00,37.9,35.5,29.20,SE,124,0.0,0.0,91,0.00,OVC,OVC,0.17,0.0,WeatherDisplay:10.37,2013-03-16 17:25:00,
2013-03-16 17:30:00,38.0,35.9,29.20,ESE,122,2.3,2.3,92,0.00,OVC,,0.17,0.0,WeatherDisplay:10.37,2013-03-16 17:30:00,
2013-03-16 17:35:00,37.8,35.4,29.21,ESE,121,1.0,0.0,91,0.00,OVC,,0.17,0.0,WeatherDisplay:10.37,2013-03-16 17:35:00,
2013-03-16 17:40:00,37.7,35.6,29.21,ESE,122,0.0,1.0,92,0.00,OVC,OVC,0.17,0.0,WeatherDisplay:10.37,2013-03-16 17:40:00,
2013-03-16 17:45:00,37.6,35.5,29.21,ESE,122,0.0,1.0,92,0.00,OVC,OVC,0.17,0.0,WeatherDisplay:10.37,2013-03-16 17:45:00,
2013-03-16 17:50:00,37.5,35.4,29.21,SE,127,0.0,0.0,92,0.00,BKN,OVC,0.17,0.0,WeatherDisplay:10.37,2013-03-16 17:50:00,
2013-03-16 17:55:00,37.4,35.3,29.21,SE,127,0.0,0.0,92,0.00,BKN,OVC,0.17,0.0,WeatherDisplay:10.37,2013-03-16 17:55:00,
2013-03-16 18:00:00,37.3,35.2,29.21,SE,127,0.0,0.0,92,0.00,BKN,OVC,0.17,0.0,WeatherDisplay:10.37,2013-03-16 18:00:00,
2013-03-16 18:05:00,37.2,35.1,29.21,SE,127,0.0,0.0,92,0.00,BKN,OVC,0.17,0.0,WeatherDisplay:10.37,2013-03-16 18:05:00,
2013-03-16 18:10:00,37.1,35.0,29.22,SE,127,0.0,0.0,92,0.00,BKN,OVC,0.17,0.0,WeatherDisplay:10.37,2013-03-16 18:10:00,
2013-03-16 18:15:00,37.1,35.0,29.21,SE,127,0.0,0.0,92,0.00,BKN,OVC,0.17,0.0,WeatherDisplay:10.37,2013-03-16 18:15:00,
2013-03-16 18:20:00,37.1,35.0,29.22,SE,127,0.0,0.0,92,0.00,BKN,OVC,0.17,0.0,WeatherDisplay:10.37,2013-03-16 18:20:00,
2013-03-16 18:25:00,37.1,35.0,29.22,SE,127,0.0,0.0,92,0.00,BKN,OVC,0.17,0.0,WeatherDisplay:10.37,2013-03-16 18:25:00,
2013-03-16 18:30:00,37.1,35.0,29.22,SE,127,0.0,0.0,92,0.00,BKN,OVC,0.17,0.0,WeatherDisplay:10.37,2013-03-16 18:30:00,
2013-03-16 18:35:00,37.0,34.9,29.22,SE,127,0.0,0.0,92,0.00,BKN,OVC,0.17,0.0,WeatherDisplay:10.37,2013-03-16 18:35:00,
2013-03-16 18:40:00,37.0,34.9,29.22,SE,127,0.0,0.0,92,0.00,BKN,OVC,0.17,0.0,WeatherDisplay:10.37,2013-03-16 18:40:00,
2013-03-16 18:45:00,36.9,34.8,29.22,SE,127,0.0,0.0,92,0.00,BKN,OVC,0.17,0.0,WeatherDisplay:10.37,2013-03-16 18:45:00,
2013-03-16 18:50:00,36.9,34.8,29.22,SE,127,0.0,0.0,92,0.00,BKN,OVC,0.17,0.0,WeatherDisplay:10.37,2013-03-16 18:50:00,
2013-03-16 18:55:00,36.9,34.8,29.22,SE,127,0.0,0.0,92,0.00,BKN,OVC,0.17,0.0,WeatherDisplay:10.37,2013-03-16 18:55:00,
2013-03-16 19:00:00,36.8,34.7,29.22,SE,127,0.0,0.0,92,0.00,BKN,OVC,0.17,0.0,WeatherDisplay:10.37,2013-03-16 19:00:00,
2013-03-16 19:05:00,36.8,34.7,29.22,SE,127,0.0,0.0,92,0.00,BKN,OVC,0.17,0.0,WeatherDisplay:10.37,2013-03-16 19:05:00,
2013-03-16 19:10:00,36.8,35.0,29.22,SE,127,0.0,0.0,93,0.00,BKN,OVC,0.17,0.0,WeatherDisplay:10.37,2013-03-16 19:10:00,
2013-03-16 19:15:00,36.8,35.0,29.22,SE,127,0.0,0.0,93,0.00,BKN,OVC,0.17,0.0,WeatherDisplay:10.37,2013-03-16 19:15:00,
2013-03-16 19:20:00,36.9,35.1,29.22,SE,127,0.0,0.0,93,0.00,BKN,OVC,0.17,0.0,WeatherDisplay:10.37,2013-03-16 19:20:00,
2013-03-16 19:25:00,37.0,35.2,29.22,SE,127,0.0,0.0,93,0.00,BKN,OVC,0.17,0.0,WeatherDisplay:10.37,2013-03-16 19:25:00,
2013-03-16 19:30:00,36.9,35.1,29.22,ESE,122,3.5,3.5,93,0.00,BKN,OVC,0.17,0.0,WeatherDisplay:10.37,2013-03-16 19:30:00,
2013-03-16 19:35:00,36.8,35.0,29.23,SE,129,3.5,3.5,93,0.00,OVC,,0.17,0.0,WeatherDisplay:10.37,2013-03-16 19:35:00,
2013-03-16 19:40:00,36.7,34.9,29.23,SE,137,3.5,3.5,93,0.00,OVC,,0.17,0.0,WeatherDisplay:10.37,2013-03-16 19:40:00,
2013-03-16 19:45:00,36.6,34.8,29.23,ESE,115,2.3,2.3,93,0.00,OVC,,0.17,0.0,WeatherDisplay:10.37,2013-03-16 19:45:00,
2013-03-16 19:50:00,36.6,35.0,29.23,ESE,122,2.3,2.3,94,0.00,OVC,,0.17,0.0,WeatherDisplay:10.37,2013-03-16 19:50:00,
2013-03-16 19:55:00,36.6,35.0,29.23,SE,131,3.5,3.5,94,0.00,OVC,,0.17,0.0,WeatherDisplay:10.37,2013-03-16 19:55:00,
2013-03-16 20:00:00,36.5,34.9,29.23,ESE,106,3.0,3.0,94,0.00,OVC,,0.17,0.0,WeatherDisplay:10.37,2013-03-16 20:00:00,
2013-03-16 20:05:00,36.5,34.9,29.23,SSE,165,3.5,3.5,94,0.00,BKN,OVC,0.17,0.0,WeatherDisplay:10.37,2013-03-16 20:05:00,
2013-03-16 20:10:00,36.5,34.9,29.23,ESE,117,2.0,2.0,94,0.00,BKN,OVC,0.17,0.0,WeatherDisplay:10.37,2013-03-16 20:10:00,
2013-03-16 20:15:00,36.5,34.9,29.24,SE,126,1.2,1.2,94,0.00,BKN,OVC,0.17,0.0,WeatherDisplay:10.37,2013-03-16 20:15:00,
2013-03-16 20:20:00,36.5,34.9,29.24,ESE,122,1.2,1.2,94,0.00,BKN,OVC,0.17,0.0,WeatherDisplay:10.37,2013-03-16 20:20:00,
2013-03-16 20:25:00,36.6,35.0,29.24,ESE,122,0.0,0.0,94,0.00,BKN,OVC,0.17,0.0,WeatherDisplay:10.37,2013-03-16 20:25:00,
2013-03-16 20:30:00,36.6,35.0,29.24,ESE,123,0.0,0.0,94,0.00,BKN,OVC,0.17,0.0,WeatherDisplay:10.37,2013-03-16 20:30:00,
2013-03-16 20:36:00,36.6,35.0,29.24,SE,124,0.0,0.4,94,0.00,BKN,OVC,0.17,0.0,WeatherDisplay:10.37,2013-03-16 20:36:00,
2013-03-16 20:41:00,36.6,35.0,29.24,SE,124,1.2,0.0,94,0.00,BKN,OVC,0.17,0.0,WeatherDisplay:10.37,2013-03-16 20:41:00,
2013-03-16 20:46:00,36.6,35.0,29.24,SE,124,0.0,0.0,94,0.00,BKN,OVC,0.17,0.0,WeatherDisplay:10.37,2013-03-16 20:46:00,
2013-03-16 20:51:00,36.5,34.9,29.24,SE,124,0.0,0.0,94,0.00,BKN,OVC,0.17,0.0,WeatherDisplay:10.37,2013-03-16 20:51:00,
2013-03-16 20:56:00,36.5,34.9,29.24,ESE,117,0.0,0.2,94,0.00,BKN,OVC,0.17,0.0,WeatherDisplay:10.37,2013-03-16 20:56:00,
2013-03-16 21:01:00,36.5,34.9,29.24,SSE,166,3.5,3.5,94,0.00,BKN,OVC,0.17,0.0,WeatherDisplay:10.37,2013-03-16 21:01:00,
2013-03-16 21:06:00,36.5,34.9,29.25,ESE,122,3.5,3.5,94,0.00,BKN,OVC,0.17,0.0,WeatherDisplay:10.37,2013-03-16 21:06:00,
2013-03-16 21:11:00,36.5,34.9,29.25,SE,126,1.2,1.2,94,0.00,BKN,OVC,0.17,0.0,WeatherDisplay:10.37,2013-03-16 21:11:00,
2013-03-16 21:16:00,36.4,34.8,29.25,SE,141,1.2,1.2,94,0.00,BKN,OVC,0.17,0.0,WeatherDisplay:10.37,2013-03-16 21:16:00,
2013-03-16 21:21:00,36.4,34.8,29.25,ESE,113,3.5,3.5,94,0.00,BKN,OVC,0.17,0.0,WeatherDisplay:10.37,2013-03-16 21:21:00,
2013-03-16 21:26:00,36.3,34.7,29.25,ESE,120,1.2,1.2,94,0.00,BKN,OVC,0.17,0.0,WeatherDisplay:10.37,2013-03-16 21:26:00,
2013-03-16 21:31:00,36.3,34.7,29.25,ESE,119,2.3,2.3,94,0.00,BKN,OVC,0.17,0.0,WeatherDisplay:10.37,2013-03-16 21:31:00,
2013-03-16 21:36:00,36.2,34.6,29.25,SE,126,2.3,2.3,94,0.00,BKN,OVC,0.17,0.0,WeatherDisplay:10.37,2013-03-16 21:36:00,
2013-03-16 21:41:00,36.2,34.6,29.25,ESE,103,4.0,4.0,94,0.00,BKN,OVC,0.17,0.0,WeatherDisplay:10.37,2013-03-16 21:41:00,
2013-03-16 21:46:00,36.1,34.5,29.25,ESE,114,1.2,0.0,94,0.00,BKN,OVC,0.17,0.0,WeatherDisplay:10.37,2013-03-16 21:46:00,
2013-03-16 21:51:00,36.1,34.5,29.25,ESE,114,0.0,0.1,94,0.00,BKN,OVC,0.17,0.0,WeatherDisplay:10.37,2013-03-16 21:51:00,
2013-03-16 21:56:00,36.1,34.5,29.25,ESE,120,2.3,2.3,94,0.00,BKN,OVC,0.17,0.0,WeatherDisplay:10.37,2013-03-16 21:56:00,
2013-03-16 22:01:00,36.1,34.5,29.25,SE,144,1.2,1.2,94,0.00,SCT,OVC,0.17,0.0,WeatherDisplay:10.37,2013-03-16 22:01:00,
2013-03-16 22:07:00,36.1,34.5,29.25,SE,130,1.2,1.2,94,0.00,SCT,OVC,0.17,0.0,WeatherDisplay:10.37,2013-03-16 22:07:00,
2013-03-16 22:12:00,36.0,34.4,29.25,SE,129,1.2,0.0,94,0.00,SCT,OVC,0.17,0.0,WeatherDisplay:10.37,2013-03-16 22:12:00,
2013-03-16 22:17:00,36.0,34.4,29.25,SE,128,1.2,1.2,94,0.00,SCT,OVC,0.17,0.0,WeatherDisplay:10.37,2013-03-16 22:17:00,
2013-03-16 22:22:00,36.0,34.4,29.25,SE,129,0.0,0.0,94,0.00,SCT,OVC,0.17,0.0,WeatherDisplay:10.37,2013-03-16 22:22:00,
2013-03-16 22:27:00,35.9,34.3,29.25,SE,128,1.2,0.0,94,0.00,SCT,OVC,0.17,0.0,WeatherDisplay:10.37,2013-03-16 22:27:00,
2013-03-16 22:32:00,35.9,34.3,29.26,SE,131,0.0,0.0,94,0.00,BKN,OVC,0.17,0.0,WeatherDisplay:10.37,2013-03-16 22:32:00,
2013-03-16 22:37:00,35.9,34.3,29.26,SE,128,1.2,0.0,94,0.00,BKN,OVC,0.17,0.0,WeatherDisplay:10.37,2013-03-16 22:37:00,
2013-03-16 22:42:00,35.8,34.2,29.26,SE,124,1.2,0.0,94,0.00,BKN,OVC,0.17,0.0,WeatherDisplay:10.37,2013-03-16 22:42:00,
2013-03-16 22:47:00,35.8,34.2,29.26,SE,125,0.0,0.0,94,0.00,BKN,OVC,0.17,0.0,WeatherDisplay:10.37,2013-03-16 22:47:00,
2013-03-16 22:52:00,35.8,34.2,29.26,SE,126,0.0,0.0,94,0.00,BKN,OVC,0.17,0.0,WeatherDisplay:10.37,2013-03-16 22:52:00,
2013-03-16 22:57:00,35.8,34.2,29.26,SE,125,0.0,0.0,94,0.00,BKN,OVC,0.17,0.0,WeatherDisplay:10.37,2013-03-16 22:57:00,
2013-03-16 23:02:00,35.8,34.2,29.26,SE,137,1.2,1.2,94,0.00,BKN,OVC,0.17,0.0,WeatherDisplay:10.37,2013-03-16 23:02:00,
2013-03-16 23:07:00,35.9,34.3,29.26,SE,136,0.0,0.0,94,0.00,BKN,OVC,0.17,0.0,WeatherDisplay:10.37,2013-03-16 23:07:00,
2013-03-16 23:13:00,35.9,34.3,29.26,SE,127,1.2,1.2,94,0.00,BKN,OVC,0.17,0.0,WeatherDisplay:10.37,2013-03-16 23:13:00,
2013-03-16 23:18:00,35.9,34.3,29.26,SE,127,1.2,1.2,94,0.00,BKN,OVC,0.17,0.0,WeatherDisplay:10.37,2013-03-16 23:18:00,
2013-03-16 23:23:00,35.8,34.2,29.26,SE,127,0.0,0.0,94,0.00,BKN,OVC,0.17,0.0,WeatherDisplay:10.37,2013-03-16 23:23:00,
2013-03-16 23:28:00,35.8,34.2,29.26,SE,129,0.0,0.0,94,0.00,BKN,OVC,0.17,0.0,WeatherDisplay:10.37,2013-03-16 23:28:00,
2013-03-16 23:33:00,35.8,34.2,29.26,SE,128,0.0,0.0,94,0.00,BKN,OVC,0.17,0.0,WeatherDisplay:10.37,2013-03-16 23:33:00,
2013-03-16 23:38:00,35.7,34.1,29.26,SE,128,0.0,0.0,94,0.00,BKN,OVC,0.17,0.0,WeatherDisplay:10.37,2013-03-16 23:38:00,
2013-03-16 23:43:00,35.7,34.1,29.26,SE,128,0.0,0.0,94,0.00,BKN,OVC,0.17,0.0,WeatherDisplay:10.37,2013-03-16 23:43:00,
2013-03-16 23:48:00,35.8,34.2,29.26,SE,128,0.0,0.0,94,0.00,SCT,OVC,0.17,0.0,WeatherDisplay:10.37,2013-03-16 23:48:00,
2013-03-16 23:53:00,35.8,34.2,29.26,SE,128,0.0,0.0,94,0.00,SCT,OVC,0.17,0.0,WeatherDisplay:10.37,2013-03-16 23:53:00,
2013-03-16 23:58:00,35.8,34.2,29.26,SE,127,0.0,0.0,94,0.00,SCT,OVC,0.17,0.0,WeatherDisplay:10.37,2013-03-16 23:58:00,